Location: Invercargill
(46.4000°S, 168.3500°E)
Time: 02:24:54
(UTC+12:00)

Cosmos 2322 Rocket - Pass Details

Date: 24 January 2019
Orbit: 832 x 851 km, 71.0° (Epoch: 19 April)

Event Time Altitude Azimuth Distance (km) Brightness Sun altitude
Rises 22:56:04 0° 330° (NNW) 3,395 5.2 -12.5°
Reaches altitude 10° 22:58:30 10° 329° (NNW) 2,470 4.5 -12.8°
Maximum altitude 23:04:11 76° 242° (WSW) 887 2.4 -13.5°
Drops below altitude 10° 23:09:59 10° 156° (SSE) 2,510 5.0 -14.1°
Sets 23:12:28 0° 154° (SSE) 3,454 5.7 -14.4°
